星链-35261(STARLINK-35261)

导读

STARLINK-35261是美国太空探索技术公司(SpaceX)星链(Starlink)星座的一颗卫星,于2025年9月13日由美国发射。星链作为全球规模最大低轨卫星互联网星座,旨在为全球提供高速卫星互联网服务,该卫星加入后将进一步扩容星座容量,提升覆盖区域网络稳定性,助力全球偏远地区网络覆盖扩展,推动天地一体化网络建设,是SpaceX持续推进星链组网计划的组成部分。

基本信息
目录编号:
65595
目录名称:
STARLINK-35261
国际标识:
2025-207D
轨道中心:
EARTH
卫星名称:
星链-35261
卫星全名:
星链-35261(STARLINK-35261)
卫星状态:
在轨 (已飞行273 天)
发射日期:
2025-09-13 UTC
国别 :
美国 (US)
星等 :
--
轨道信息
数据来源 国际轨道数据 AOE轨道数据
星历时间 2026-06-13T12:21:49+0800
9小时前
查看轨道信息
2026-06-12T00:00:00+0800
1天前
查看轨道信息
半长轴 6927.713km 6927.576km
偏心率 0.0001099 0.0002056
轨道倾角 97.367° 97.391°
近地点辐角 100.716° 104.787°
升交点赤经 231.994° 230.550°
平近点角 259.419° 327.922°
近地点 548.814km 548.014km
远地点 550.338km 550.864km
周期 95.641分钟 95.638分钟
每日圈数 15.05629 15.056737
详细信息
固有亮度:
5
最大亮度:
2.5
卫星平台:
Starlink V1.0
覆盖范围:
全球
运营商:
太空探索技术公司
运营商所在国:
美国
制造商(研发单位):
太空探索技术公司
制造商所在国:
美国
使用方式:
暂无
卫星简介
Starlink 计划是 SpaceX 推出的全球卫星互联网项目,通过发射低轨道卫星,为全球尤其是偏远地区提供高速、低延迟的互联网服务。自 2019 年起,Starlink 已部署数千颗卫星,旨在缩小全球数字鸿沟,推动互联网普及。该项目还为军事、航空等行业提供通信支持,带来广泛经济效益。
2D轨道图
3D轨道图
轨道高度分析图
轨道倾角分析图
轨道综合分析图
查看轨道综合分析图